[[{"header":{"parameterUnit":"m.s-1","parameterCategory":2,"la1":30.2992,"la2":30.254,"lo1":-89.0895,"lo2":-89.0443,"dy":0.0025,"dx":0.0025,"nx":19,"ny":19,"refTime":"2026-05-06T03:00:00:Z","depth":"0","parameterNumber":2,"parameterNumberName":"U-component_of_CURRENTS"},"data":[0,0,0,0.1487,0.149,0.1621,0.1621,0.1825,0.1827,0,0,0,0,0,0,0,0,0,0,0,0.1435,0.1435,0.1487,0.149,0.1621,0.1621,0.1825,0.1827,0,0,0,0,0,0,0,0,0,0,0,0.1434,0.1435,0.1436,0.1491,0.1621,0.1622,0.1824,0.1718,0,0,0,0,0,0,0,0,0,0,0.1587,0.1522,0.1435,0.1436,0.1491,0.1621,0.1622,0.1712,0.1724,0.1775,0,0.1788,0,0.1816,0.1841,0.1842,0,0,0,0.1495,0.1511,0.1557,0.1436,0.1493,0.162,0.1563,0.1719,0.1732,0.1791,0.1791,0.1799,0.1819,0.1842,0.1843,0.2034,0.2034,0,0,0.1488,0.1454,0.1547,0.1565,0.152,0.1559,0.1567,0.1727,0.1733,0.1792,0.1804,0.1823,0.1844,0.1845,0.2033,0.2034,0,0,0,0.1464,0.1448,0.1489,0.1557,0.158,0.1563,0.1572,0.1726,0.1742,0.1806,0.1825,0.1845,0.1847,0.2033,0.2033,0.2014,0,0,0,0.146,0.1435,0.1486,0.1467,0.1576,0.1648,0.1567,0.1731,0.175,0.1824,0.1845,0.1849,0.2032,0.2033,0.2014,0.2,0,0,0,0.143,0.1432,0.1446,0.1464,0.1521,0.1646,0.1671,0.1735,0.1762,0.1842,0.185,0.2032,0.2033,0.2013,0.2,0.2004,0,0,0,0.1392,0.1459,0.1445,0.1519,0.152,0.1624,0.167,0.1746,0.181,0.1846,0.2032,0.2033,0.2013,0.1999,0.2003,0.1958,0.1955,0,0,0.1469,0.1466,0.1512,0.1505,0.1594,0.1606,0.1708,0.1799,0.1849,0.1982,0.1987,0.2014,0.2,0.2004,0.2029,0.2024,0,0,0,0.1533,0.1559,0.1585,0.1624,0.1676,0.1718,0.1792,0.1837,0.1943,0.1894,0.2044,0.2037,0.2039,0.2012,0.2009,0.1864,0.2039,0.2039,0.2039,0.1595,0.1616,0.1677,0.1707,0.175,0.1806,0.1857,0.1935,0.1973,0.2013,0.2044,0.2064,0.2037,0.2034,0.1886,0.2073,0.2073,0.2073,0.2073,0.1698,0.1732,0.1724,0.179,0.1801,0.1865,0.1949,0.1972,0.2055,0.2073,0.2076,0.2022,0.2029,0.1873,0.2072,0.2072,0.2073,0.2073,0.2073,0.1732,0.1751,0.1768,0.1812,0.1845,0.1885,0.1934,0.1987,0.2043,0.2052,0.2024,0.2024,0.1865,0.2047,0.2047,0.2047,0.2047,0.2047,0.2047,0.176,0.178,0.1808,0.1836,0.1843,0.1866,0.192,0.1951,0.1981,0.2005,0.2005,0.1857,0.2057,0.2034,0.2047,0.2047,0.2047,0.2047,0.2047,0.1853,0.182,0.1865,0.1871,0.1866,0.1846,0.189,0.19,0.193,0.1933,0.1783,0.1989,0.199,0.1992,0.1969,0.1964,0.1964,0.1964,0.1964,0.1893,0.1888,0.1914,0.1907,0.1883,0.1844,0.1802,0.1794,0.1741,0.1671,0.1667,0.1635,0.1645,0.1623,0.1634,0.1604,0.1506,0.1505,0.1505,0.1964,0.1951,0.1973,0.1927,0.1884,0.182,0.1729,0.1631,0.1518,0.1472,0.147,0.149,0.1431,0.1458,0.1419,0.1446,0.1395,0,0]},{"header":{"parameterUnit":"m.s-1","parameterCategory":2,"la1":30.2992,"la2":30.254,"lo1":-89.0895,"lo2":-89.0443,"dy":0.0025,"dx":0.0025,"nx":19,"ny":19,"refTime":"2026-05-06T03:00:00:Z","depth":"0","parameterNumber":3,"parameterNumberName":"V-component_of_CURRENTS"},"data":[0,0,0,0.0077,0.0082,0.0328,0.033,0.08,0.0804,0,0,0,0,0,0,0,0,0,0,0,-0.0005,-0.0004,0.0077,0.0082,0.0328,0.033,0.0799,0.0804,0,0,0,0,0,0,0,0,0,0,0,-0.0006,-0.0004,-0.0003,0.0083,0.0328,0.033,0.0798,0.0581,0,0,0,0,0,0,0,0,0,0,0.0325,0.021,-0.0005,-0.0003,0.0084,0.0328,0.033,0.0569,0.0594,0.0723,0,0.0744,0,0.0777,0.0836,0.0838,0,0,0,0.0112,0.0188,0.0256,-0.0003,0.0086,0.0327,0.0226,0.0582,0.0611,0.0757,0.0751,0.0768,0.0785,0.0839,0.0842,0.1262,0.1263,0,0,0.0098,0.0053,0.0235,0.0273,0.0134,0.0217,0.0233,0.0598,0.0625,0.0752,0.0778,0.0793,0.0843,0.0846,0.1261,0.1263,0,0,0,0.0039,0.0043,0.0099,0.0255,0.0283,0.0224,0.0242,0.0609,0.0627,0.0783,0.0798,0.0845,0.0851,0.126,0.1262,0.126,0,0,0,0.0032,0.0007,0.0092,0.007,0.0274,0.0427,0.0244,0.0602,0.0643,0.0796,0.0845,0.0856,0.1259,0.1261,0.1257,0.1254,0,0,0,-0.0014,0.0002,0.0024,0.0067,0.0159,0.042,0.046,0.0611,0.0653,0.0838,0.0857,0.1259,0.1261,0.1255,0.1251,0.1262,0,0,0,-0.0058,-0.0003,0.0023,0.011,0.0156,0.0372,0.0458,0.0636,0.0789,0.0848,0.1259,0.1262,0.1255,0.1249,0.126,0.1203,0.1206,0,0,-0.001,0.0002,0.0058,0.0087,0.0273,0.0341,0.0578,0.0789,0.0873,0.1154,0.1163,0.1258,0.1251,0.1262,0.1341,0.1338,0,0,0,0.0061,0.0103,0.0165,0.0276,0.0419,0.0594,0.0776,0.0867,0.1083,0.0968,0.1308,0.1304,0.131,0.1274,0.1274,0.1277,0.1273,0.1273,0.1272,0.0077,0.0165,0.03,0.0443,0.058,0.0801,0.094,0.1107,0.1179,0.125,0.1338,0.1396,0.1362,0.136,0.1366,0.1383,0.1383,0.1383,0.1383,0.0185,0.0287,0.0402,0.0555,0.0732,0.0926,0.1168,0.1217,0.1396,0.1407,0.1413,0.132,0.1359,0.1365,0.1384,0.1384,0.1384,0.1383,0.1383,0.0227,0.0296,0.037,0.0582,0.0782,0.0984,0.1159,0.1299,0.1391,0.143,0.1379,0.1378,0.1349,0.1418,0.1418,0.1418,0.1418,0.1418,0.1418,0.0247,0.0336,0.0435,0.0621,0.0738,0.0911,0.1147,0.1236,0.1334,0.1385,0.1384,0.1384,0.1407,0.1366,0.1419,0.1419,0.1419,0.1419,0.1419,0.0358,0.034,0.0481,0.0578,0.0804,0.0917,0.109,0.1211,0.1288,0.1307,0.135,0.1368,0.136,0.1361,0.132,0.1358,0.1358,0.1358,0.1358,0.0392,0.0408,0.0544,0.0666,0.0817,0.094,0.1043,0.1164,0.127,0.1309,0.133,0.131,0.1312,0.1301,0.1303,0.1262,0.1284,0.1284,0.1285,0.0468,0.0483,0.0576,0.0666,0.083,0.0925,0.1006,0.1145,0.1267,0.1285,0.135,0.1353,0.1329,0.1332,0.1317,0.1319,0.1253,0,0]}],[{"header":{"parameterUnit":"m.s-1","parameterCategory":2,"la1":30.2992,"la2":30.254,"lo1":-89.0895,"lo2":-89.0443,"dy":0.0025,"dx":0.0025,"nx":19,"ny":19,"refTime":"2026-05-06T03:00:00:Z","depth":"2","parameterNumber":2,"parameterNumberName":"U-component_of_CURRENTS"},"data":[0,0,0,0.1479,0.1482,0.1621,0.1622,0.1827,0.1829,0,0,0,0,0,0,0,0,0,0,0,0.1423,0.1424,0.1479,0.1482,0.1621,0.1622,0.1827,0.1829,0,0,0,0,0,0,0,0,0,0,0,0.1423,0.1423,0.1424,0.1483,0.1621,0.1622,0.1826,0.1716,0,0,0,0,0,0,0,0,0,0,0.1578,0.1511,0.1423,0.1424,0.1484,0.1621,0.1622,0.171,0.1723,0.1771,0,0.1786,0,0.1816,0.1843,0.1844,0,0,0,0.1487,0.15,0.1548,0.1424,0.1485,0.1621,0.156,0.1717,0.1731,0.1787,0.1789,0.1797,0.1819,0.1844,0.1845,0.203,0.2031,0,0,0.1479,0.1444,0.1538,0.1557,0.1514,0.1555,0.1564,0.1725,0.1732,0.1789,0.1802,0.1823,0.1846,0.1847,0.203,0.2031,0,0,0,0.1454,0.1438,0.1481,0.1548,0.1574,0.1559,0.1569,0.1724,0.1742,0.1804,0.1825,0.1847,0.185,0.2029,0.203,0.2015,0,0,0,0.145,0.1424,0.1477,0.1457,0.157,0.1646,0.1565,0.173,0.175,0.1824,0.1847,0.1852,0.2029,0.203,0.2015,0.2003,0,0,0,0.1418,0.142,0.1436,0.1455,0.1516,0.1643,0.167,0.1735,0.1763,0.1844,0.1852,0.2029,0.203,0.2014,0.2002,0.2005,0,0,0,0.1378,0.1446,0.1435,0.1508,0.1514,0.1622,0.1669,0.1749,0.1814,0.1848,0.2029,0.203,0.2014,0.2002,0.2004,0.1914,0.1908,0,0,0.1456,0.1454,0.1499,0.1494,0.1587,0.1603,0.1706,0.18,0.185,0.1978,0.1982,0.2015,0.2002,0.2005,0.1978,0.197,0,0,0,0.152,0.1548,0.1574,0.1615,0.167,0.1716,0.1792,0.1837,0.1941,0.1894,0.2042,0.2035,0.2036,0.1982,0.1976,0.2035,0.2035,0.2035,0.2035,0.1586,0.1606,0.167,0.1701,0.1745,0.1805,0.1857,0.1933,0.1971,0.2009,0.2043,0.2062,0.2005,0.1999,0.2069,0.2069,0.2069,0.2069,0.2069,0.1692,0.1728,0.172,0.1788,0.18,0.1866,0.1948,0.1971,0.2052,0.2069,0.2071,0.1994,0.1992,0.2068,0.2069,0.2069,0.2069,0.2069,0.2069,0.1728,0.1749,0.1766,0.1813,0.1849,0.1888,0.1937,0.199,0.2043,0.2053,0.1993,0.1992,0.2034,0.2048,0.2048,0.2048,0.2048,0.2048,0.2048,0.1758,0.178,0.1809,0.184,0.1848,0.1872,0.1926,0.1956,0.1965,0.1972,0.1972,0.2054,0.2055,0.2034,0.2047,0.2047,0.2047,0.2048,0.2048,0.1853,0.182,0.1867,0.1874,0.1873,0.1848,0.1893,0.188,0.1902,0.1888,0.1932,0.1935,0.193,0.1934,0.1911,0.1892,0.1892,0.1892,0.1892,0.1892,0.1887,0.1916,0.1912,0.1888,0.1845,0.1768,0.1653,0.1664,0.1589,0.1602,0.1567,0.1581,0.1554,0.1567,0.1537,0.1419,0.1418,0.1417,0.1962,0.1951,0.1973,0.1931,0.1889,0.1815,0.1663,0.1343,0.1167,0.1393,0.1467,0.187,0.1854,0.1862,0.1852,0.1861,0.1824,0,0]},{"header":{"parameterUnit":"m.s-1","parameterCategory":2,"la1":30.2992,"la2":30.254,"lo1":-89.0895,"lo2":-89.0443,"dy":0.0025,"dx":0.0025,"nx":19,"ny":19,"refTime":"2026-05-06T03:00:00:Z","depth":"2","parameterNumber":3,"parameterNumberName":"V-component_of_CURRENTS"},"data":[0,0,0,-0.0049,-0.0045,0.0212,0.0214,0.0668,0.0672,0,0,0,0,0,0,0,0,0,0,0,-0.0136,-0.0135,-0.005,-0.0044,0.0212,0.0214,0.0668,0.0672,0,0,0,0,0,0,0,0,0,0,0,-0.0137,-0.0136,-0.0134,-0.0044,0.0212,0.0214,0.0667,0.0449,0,0,0,0,0,0,0,0,0,0,0.0187,0.0077,-0.0136,-0.0134,-0.0042,0.0212,0.0214,0.0437,0.0462,0.0579,0,0.0602,0,0.0639,0.0703,0.0705,0,0,0,-0.0014,0.0055,0.012,-0.0134,-0.004,0.0211,0.0105,0.0451,0.0479,0.0612,0.0608,0.0624,0.0647,0.0706,0.0708,0.1098,0.1099,0,0,-0.0028,-0.0072,0.01,0.0137,0.001,0.0096,0.0112,0.0467,0.0496,0.061,0.0635,0.0654,0.0709,0.0712,0.1097,0.1098,0,0,0,-0.009,-0.0082,-0.0027,0.0119,0.0152,0.0103,0.0122,0.048,0.0496,0.064,0.066,0.0712,0.0717,0.1096,0.1098,0.1113,0,0,0,-0.0097,-0.012,-0.0035,-0.0055,0.0143,0.0302,0.0127,0.0472,0.0512,0.0657,0.0712,0.0722,0.1095,0.1097,0.111,0.111,0,0,0,-0.0145,-0.0124,-0.0103,-0.0059,0.0038,0.0296,0.0334,0.0481,0.0525,0.0705,0.0723,0.1095,0.1097,0.1108,0.1107,0.1129,0,0,0,-0.0186,-0.0135,-0.0103,-0.0023,0.0035,0.0248,0.0332,0.0513,0.0663,0.0714,0.1096,0.1098,0.1107,0.1105,0.1128,0.1042,0.1043,0,0,-0.0144,-0.0131,-0.0081,-0.0047,0.0134,0.0215,0.0445,0.0654,0.0735,0.0992,0.1001,0.1111,0.1107,0.1129,0.1159,0.1156,0,0,0,-0.0081,-0.0037,0.0022,0.0132,0.0273,0.0453,0.0638,0.0723,0.0933,0.0827,0.1148,0.1146,0.1159,0.1105,0.1104,0.1107,0.1107,0.1107,0.1107,-0.0058,0.0023,0.0154,0.0292,0.0428,0.0651,0.079,0.0949,0.1021,0.109,0.1186,0.1251,0.1196,0.1193,0.1222,0.1222,0.1222,0.1222,0.1222,0.005,0.0148,0.0261,0.0411,0.0585,0.0778,0.1007,0.106,0.1238,0.1245,0.1257,0.1158,0.1193,0.1224,0.1224,0.1223,0.1223,0.1223,0.1223,0.0096,0.0163,0.0239,0.0449,0.065,0.0846,0.102,0.1159,0.1248,0.1295,0.1233,0.1231,0.1234,0.1298,0.1298,0.1298,0.1298,0.1299,0.1299,0.0119,0.0209,0.0313,0.05,0.0618,0.0794,0.1027,0.1116,0.1209,0.1249,0.1248,0.1276,0.1274,0.124,0.13,0.13,0.13,0.13,0.13,0.0227,0.0214,0.0361,0.0462,0.0692,0.0798,0.0973,0.1085,0.1166,0.1177,0.1226,0.1227,0.1211,0.1211,0.1177,0.1217,0.1217,0.1217,0.1217,0.0259,0.0278,0.0424,0.0553,0.0703,0.0819,0.0891,0.0962,0.1061,0.1082,0.1088,0.1044,0.105,0.1023,0.1027,0.0989,0.0981,0.098,0.098,0.0332,0.0354,0.0452,0.0553,0.0715,0.0798,0.0819,0.0811,0.0867,0.0972,0.106,0.1198,0.1148,0.1153,0.1122,0.1124,0.1067,0,0]}],[{"header":{"parameterUnit":"m.s-1","parameterCategory":2,"la1":30.2992,"la2":30.254,"lo1":-89.0895,"lo2":-89.0443,"dy":0.0025,"dx":0.0025,"nx":19,"ny":19,"refTime":"2026-05-06T03:00:00:Z","depth":"4","parameterNumber":2,"parameterNumberName":"U-component_of_CURRENTS"},"data":[0,0,0,-0.0546,-0.0544,-0.0369,-0.0368,-0.003,-0.0027,0,0,0,0,0,0,0,0,0,0,0,-0.0596,-0.0595,-0.0546,-0.0543,-0.0369,-0.0368,-0.003,-0.0027,0,0,0,0,0,0,0,0,0,0,0,-0.0596,-0.0596,-0.0595,-0.0543,-0.037,-0.0368,-0.0031,-0.0183,0,0,0,0,0,0,0,0,0,0,-0.0363,-0.0421,-0.0596,-0.0595,-0.0542,-0.037,-0.0368,-0.0191,-0.0174,-0.0086,0,-0.0074,0,-0.0058,-0.0005,-0.0004,0,0,0,-0.051,-0.0436,-0.0414,-0.0595,-0.0541,-0.037,-0.0438,-0.0182,-0.0162,-0.0062,-0.0069,-0.0058,-0.0052,-0.0003,-0.0001,0.0275,0.0276,0,0,-0.0519,-0.053,-0.0428,-0.0402,-0.0511,-0.0444,-0.0433,-0.0171,-0.0138,-0.0068,-0.005,-0.0047,-0.0,0.0002,0.0274,0.0275,0,0,0,-0.057,-0.0536,-0.0521,-0.0415,-0.0401,-0.044,-0.0427,-0.0149,-0.0152,-0.0047,-0.0043,0.0002,0.0006,0.0274,0.0275,0.0318,0,0,0,-0.0574,-0.0569,-0.0526,-0.0525,-0.0407,-0.0285,-0.0412,-0.017,-0.0141,-0.0044,0.0002,0.0009,0.0273,0.0274,0.0316,0.0331,0,0,0,-0.0601,-0.0571,-0.0563,-0.0528,-0.0472,-0.029,-0.0275,-0.0163,-0.0139,-0.0003,0.001,0.0273,0.0274,0.0313,0.0328,0.0225,0,0,0,-0.0601,-0.0561,-0.0562,-0.0509,-0.0474,-0.0352,-0.0277,-0.0135,-0.0019,0.0003,0.0273,0.0275,0.0313,0.0325,0.0225,0.0169,0,0,0,-0.0553,-0.0555,-0.0528,-0.0526,-0.0437,-0.0373,-0.0203,-0.0019,0.0028,0.02,0.0206,0.0316,0.0327,0.0225,0.0246,0,0,0,0,-0.0514,-0.0496,-0.0472,-0.0418,-0.0344,-0.0193,-0.0049,0.0018,0.0184,0.0093,0.033,0.0336,0.0269,0.0239,0.0281,0.0281,0.0281,0.028,0.028,-0.0449,-0.0432,-0.0352,-0.0294,-0.0198,-0.0038,0.0077,0.0203,0.0245,0.031,0.0382,0.0353,0.033,0.0395,0.0395,0.0396,0.0396,0.0396,0.0396,-0.0378,-0.0328,-0.0252,-0.0151,-0.0013,0.0156,0.0291,0.0331,0.0402,0.0441,0.0371,0.0305,0.0401,0.04,0.0399,0.0399,0.0398,0.0398,0.0398,-0.0344,-0.0308,-0.0224,-0.006,0.013,0.0279,0.0332,0.0418,0.0434,0.0427,0.0285,0.0342,0.0318,0.0345,0.0345,0.0345,0.0344,0.0344,0.0344,-0.0333,-0.0259,-0.016,0.002,0.0124,0.0245,0.0334,0.0287,0.0296,0.0318,0.0395,0.0333,0.0335,0.0313,0.0339,0.034,0.034,0.0341,0.0341,-0.0328,-0.0277,-0.0172,-0.0076,0.0079,0.013,0.019,0.0148,0.0068,0.0021,0.0222,0.023,0.018,0.0184,0.0155,0.0135,0.0134,0.0133,0,-0.0334,-0.0301,-0.02,-0.0137,-0.0072,0.0026,-0.0047,-0.0077,-0.0028,0.0048,-0.0027,0.0201,0.0209,0.015,0.0153,0.0117,0,0,0,-0.0344,-0.031,-0.0264,-0.0187,-0.0137,-0.0109,-0.0062,-0.0061,0.0061,-0.0075,0.0115,0.012,0.0075,0.0323,0.0261,0.0263,0.0224,0,0]},{"header":{"parameterUnit":"m.s-1","parameterCategory":2,"la1":30.2992,"la2":30.254,"lo1":-89.0895,"lo2":-89.0443,"dy":0.0025,"dx":0.0025,"nx":19,"ny":19,"refTime":"2026-05-06T03:00:00:Z","depth":"4","parameterNumber":3,"parameterNumberName":"V-component_of_CURRENTS"},"data":[0,0,0,0.019,0.019,0.0185,0.0185,0.0068,0.0067,0,0,0,0,0,0,0,0,0,0,0,0.0184,0.0184,0.019,0.019,0.0185,0.0185,0.0069,0.0067,0,0,0,0,0,0,0,0,0,0,0,0.0184,0.0184,0.0184,0.019,0.0185,0.0185,0.0069,0.0098,0,0,0,0,0,0,0,0,0,0,0.0116,0.0121,0.0184,0.0184,0.019,0.0185,0.0185,0.0101,0.0096,0.0041,0,0.0041,0,0.0054,0.0057,0.0057,0,0,0,0.0184,0.0125,0.0133,0.0184,0.019,0.0185,0.0185,0.0099,0.0094,0.0035,0.004,0.0037,0.0052,0.0056,0.0056,-0.0011,-0.0011,0,0,0.0184,0.017,0.0138,0.013,0.0187,0.0185,0.0185,0.0097,0.0082,0.004,0.0035,0.005,0.0055,0.0054,-0.0011,-0.0011,0,0,0,0.0189,0.017,0.0182,0.0134,0.0143,0.0185,0.0185,0.0086,0.0093,0.0034,0.0049,0.0055,0.0053,-0.0012,-0.0011,0.0057,0,0,0,0.0189,0.0174,0.0182,0.0172,0.0146,0.0128,0.0175,0.0099,0.0091,0.0049,0.0054,0.0051,-0.0012,-0.0011,0.0054,0.0115,0,0,0,0.0185,0.0173,0.0175,0.0172,0.0175,0.0131,0.0133,0.0098,0.0099,0.0057,0.0051,-0.0012,-0.0011,0.0052,0.011,0.0161,0,0,0,0.0167,0.0186,0.0174,0.0197,0.0175,0.021,0.0134,0.0134,0.0108,0.0054,-0.0012,-0.0011,0.0051,0.0106,0.0157,0.0006,0,0,0,0.0191,0.0187,0.0206,0.0197,0.0244,0.0211,0.0231,0.0155,0.0097,0.0006,0.0006,0.0055,0.0109,0.016,0.0057,0,0,0,0,0.0215,0.0224,0.0239,0.0255,0.0273,0.0275,0.0223,0.0194,0.0128,0.0085,0.0054,0.0086,0.0116,0.0016,-0.0007,-0.0007,-0.0007,-0.0007,-0.0007,0.0237,0.0254,0.0292,0.0312,0.0325,0.0308,0.0309,0.025,0.0173,0.0163,0.0139,0.0225,0.0121,0.0119,0.0119,0.0119,0.012,0.012,0.012,0.0284,0.0309,0.0326,0.0372,0.0379,0.0379,0.0347,0.0306,0.0296,0.0217,0.0241,0.0091,0.0127,0.0125,0.0124,0.0124,0.0123,0.0123,0.0122,0.0303,0.0317,0.036,0.0418,0.0436,0.0413,0.0393,0.0394,0.0363,0.0394,0.0262,0.0286,0.0284,0.0383,0.0383,0.0384,0.0384,0.0384,0.0385,0.0306,0.035,0.0407,0.0459,0.0482,0.0458,0.0438,0.0373,0.0359,0.0352,0.0409,0.0315,0.0306,0.03,0.0392,0.0391,0.039,0.0389,0.0389,0.0301,0.0356,0.0432,0.0481,0.0492,0.0438,0.0451,0.0307,0.0299,0.0233,0.0326,0.0327,0.0297,0.0289,0.0281,0.0372,0.037,0.0369,0,0.0301,0.0331,0.0451,0.0512,0.0452,0.0424,0.0286,0.0177,0.0191,0.0284,0.0239,0.0351,0.0349,0.0313,0.0304,0.0293,0,0,0,0.0292,0.035,0.0421,0.0509,0.0434,0.0279,0.0217,0.0177,0.0318,0.0068,0.033,0.034,0.0083,0.0415,0.0372,0.0362,0.035,0,0]}]]